Lid_Strength_Index
4 4 6 6 5 4 4 5 7 8 7 6 6 5 5 4 2 4 4 1 2 3 3 3 3 3 2 2 2 2 3 2 2 2 2 2 1 1
4 5 6 7 6 4 4 4 6 6 7 6 6 5 5 4 3 4 3 1 2 3 3 3 3 3 3 3 2 2 3 3 3 3 3 3 3 2
5 6 6 5 6 4 4 5 5 5 7 6 6 5 6 7 5 4 3 4 3 3 3 3 3 3 3 3 3 3 3 3 3 3 4 4 4 3
4 6 5 5 5 5 5 5 5 5 6 8 7 7 8 7 6 5 4 3 3 3 3 4 4 3 3 3 3 3 4 4 5 5 5 5 5 4
5 6 6 6 7 5 5 5 5 4 6 7 8 8 8 7 6 6 6 6 3 2 3 3 3 4 4 3 3 3 4 5 5 6 6 6 6 6
5 5 5 6 5 5 5 5 5 5 6 7 9 10 9 8 7 7 8 8 7 4 3 4 4 4 4 4 3 3 4 5 5 7 7 7 6 7
6 6 8 6 5 5 4 6 6 7 8 9 10 11 11 10 9 7 9 7 8 6 6 6 7 7 6 6 4 3 4 5 5 6 7 7 8 8
8 8 9 8 8 7 5 5 5 8 10 10 11 12 12 10 9 9 9 9 11 7 7 7 7 8 7 7 4 4 4 5 5 6 6 8 8 8
9 9 9 9 10 9 6 6 6 6 8 11 12 12 12 11 10 10 9 10 10 9 8 8 7 7 7 6 5 5 5 5 5 6 6 7 8 9
9 9 9 11 11 10 7 8 9 9 9 9 11 11 10 10 10 9 9 10 10 10 9 10 9 7 7 7 5 5 5 5 5 6 6 7 8 9
7 8 9 10 11 10 8 10 11 11 8 8 9 10 10 10 8 10 12 11 12 11 10 10 10 10 7 9 8 5 6 6 5 6 6 6 7 9
10 8 10 11 12 10 9 10 11 11 11 11 11 11 10 9 7 10 11 12 12 13 11 12 12 12 12 9 9 8 7 5 6 6 6 7 7 9
10 10 12 12 12 10 9 9 10 10 9 9 9 9 10 9 8 9 10 11 12 12 9 12 13 12 12 12 11 8 7 7 8 7 7 7 7 8
11 12 13 13 13 10 8 10 11 9 9 10 11 11 11 10 9 9 10 9 10 10 9 10 12 12 13 13 13 10 9 8 8 9 9 8 8 7
12 13 14 14 14 11 11 10 10 10 10 11 12 12 11 11 9 8 9 9 9 8 8 10 11 12 12 13 13 13 12 11 9 10 10 10 10 9
12 13 13 13 11 10 11 10 11 10 10 11 12 11 11 11 11 10 9 9 10 10 9 10 11 12 13 13 13 13 13 14 12 10 10 11 10 10
14 13 14 13 11 11 9 9 10 10 11 11 12 11 11 11 11 11 11 12 12 12 12 12 12 12 12 13 14 13 13 13 12 11 12 12 11 11
13 13 13 13 12 11 10 11 10 10 11 11 12 12 12 12 12 12 11 13 13 14 13 12 13 12 12 12 11 13 13 13 13 12 12 13 12 11
13 12 13 13 12 9 10 11 11 11 11 11 12 12 12 12 12 12 12 12 13 14 14 13 13 13 14 15 12 10 13 13 13 14 13 13 13 12
12 12 12 12 10 9 10 11 11 11 11 11 12 12 12 13 13 13 12 12 13 13 13 13 13 14 14 14 13 13 12 14 14 14 14 13 12 10
11 11 11 10 9 9 10 10 10 10 11 12 12 12 12 13 14 14 14 14 13 13 14 14 13 14 12 12 13 13 12 11 12 14 14 14 14 14
11 11 11 12 11 9 9 10 11 11 12 12 12 12 12 12 13 13 13 13 14 14 14 13 12 12 13 14 15 15 13 12 11 9 9 11 14 15
10 11 12 11 10 10 10 11 11 11 12 12 12 12 12 12 12 13 13 13 14 14 13 14 13 13 13 14 15 15 14 14 13 12 12 8 8 8